Regional Weather Roundup
Issued by NWS Little Rock, AR

Home | Current Version | Previous Version | Graphics & Text | Print | Product List | Glossary On
Versions: 1 2 3 4 5 6 7 8 9 10 11 12 13 14 15 16 17 18 19 20 21 22 23 24 25 26 27 28
000
ASUS44 KLZK 290009
RWRLZK

WEATHER ROUNDUP FOR ARKANSAS
NATIONAL WEATHER SERVICE LITTLE ROCK AR
700 PM CDT THU JUL 28 2016

NOTE: "FAIR" INDICATES FEW OR NO CLOUDS BELOW 12,000 FEET WITH NO
SIGNIFICANT WEATHER AND/OR OBSTRUCTIONS TO VISIBILITY.

ARZ001-003-010-029-290100-
NORTHWEST ARKANSAS

CITY           SKY/WX    TMP DP  RH WIND       PRES   REMARKS
FAYETTEVILLE   SUNNY     88  72  58 S3        29.93S HX  94
6HR MIN TEMP:  85; 6HR MAX TEMP:  91;

FORT SMITH     PTSUNNY   95  67  39 NE6       29.87S HX  99
6HR MIN TEMP:  91; 6HR MAX TEMP:  97;

HARRISON       LGT RAIN  84  71  65 CALM      29.94S HX  89
6HR MIN TEMP:  84; 6HR MAX TEMP:  93; 6HR PCP: TRACE;

BENTONVILLE    SUNNY     84  72  65 N6        29.96R HX  89
6HR MIN TEMP:  84; 6HR MAX TEMP:  91;

ROGERS         SUNNY     84  74  71 N5        29.95  HX  91
6HR MIN TEMP:  84; 6HR MAX TEMP:  90;

SILOAM SPGS    SUNNY     88  68  51 N3        29.95F HX  91
6HR MIN TEMP:  84; 6HR MAX TEMP:  91;

HIGHFILL       MOSUNNY   86  76  71 NW6       29.94S HX  96
6HR MIN TEMP:  86; 6HR MAX TEMP:  92;

$$

ARZ004-005-016-290100-
NORTH CENTRAL ARKANSAS

CITY           SKY/WX    TMP DP  RH WIND       PRES   REMARKS
BATESVILLE     MOSUNNY   82  70  65 S6        29.90S HX  86
6HR MIN TEMP:  82; 6HR MAX TEMP:  93;

FLIPPIN        SUNNY     91  70  49 W3        29.88F HX  97
6HR MIN TEMP:  90; 6HR MAX TEMP:  93;

MTN HOME       SUNNY     89  75  63 CALM      29.90S HX  99
6HR MIN TEMP:  86; 6HR MAX TEMP:  91;

$$

ARZ040-041-290100-
WEST CENTRAL ARKANSAS

CITY           SKY/WX    TMP DP  RH WIND       PRES   REMARKS
MENA             N/A    N/A N/A N/A MISG        N/A
MOUNT IDA      CLOUDY    87  75  67 VRB3      29.91F HX  96
6HR MIN TEMP:  84; 6HR MAX TEMP:  89;

$$

ARZ009-017-025-026-028-290100-
NORTHEAST ARKANSAS

CITY           SKY/WX    TMP DP  RH WIND       PRES   REMARKS
CORNING          N/A     79  75  89 SE5       29.91R
JONESBORO      CLOUDY    87  76  69 SW12G24   29.89R HX  97
6HR MIN TEMP:  86; 6HR MAX TEMP:  91;

NEWPORT        CLOUDY    83  72  69 S9        29.90S HX  88
6HR MIN TEMP:  83; 6HR MAX TEMP:  94;

WALNUT RIDGE   CLOUDY    88  75  66 S16       29.87R HX  97
6HR MIN TEMP:  79; 6HR MAX TEMP:  91;

BLYTHEVILLE    MOSUNNY   84  76  76 SW6       29.91R HX  93
6HR MIN TEMP:  84; 6HR MAX TEMP:  90;

$$

ARZ022-023-033-042-044-290100-
CENTRAL ARKANSAS

CITY           SKY/WX    TMP DP  RH WIND       PRES   REMARKS
LITTLE ROCK    PTSUNNY   85  75  72 SW13      29.91S HX  93
6HR MIN TEMP:  85; 6HR MAX TEMP:  92;

N LITTLE ROCK    N/A     83  76  77 SW6       29.89S HX  92
6HR MIN TEMP:  83; 6HR MAX TEMP:  90;

SEARCY         CLOUDY    75  73  93 CALM      29.90F
6HR MIN TEMP:  72; 6HR MAX TEMP:  93;

HOT SPRINGS    CLOUDY    85  74  69 SW8       29.93  HX  92
6HR MIN TEMP:  84; 6HR MAX TEMP:  89;

RUSSELLVILLE   CLOUDY    87  72  60 CALM      29.89R HX  93
6HR MIN TEMP:  87; 6HR MAX TEMP:  93;

$$

ARZ036-290100-
EAST ARKANSAS

CITY           SKY/WX    TMP DP  RH WIND       PRES   REMARKS
WEST MEMPHIS   MOSUNNY   82  76  81 SW6       29.91R HX  89
6HR MIN TEMP:  82; 6HR MAX TEMP:  87;

$$

ARZ050-053-066-070-073-290100-
SOUTHWEST ARKANSAS

CITY           SKY/WX    TMP DP  RH WIND       PRES   REMARKS
ARKADELPHIA    FAIR      80  75  84 S7        29.94R HX  85
6HR MIN TEMP:  80; 6HR MAX TEMP:  85;

CAMDEN         CLOUDY    77  72  83 S3        29.96R
TEXARKANA      CLOUDY    75  72  90 S7        29.96R
6HR MIN TEMP:  75; 6HR MAX TEMP:  77; 6HR PCP:  0.04;

EL DORADO      CLOUDY    76  74  93 SW7       29.98R
6HR MIN TEMP:  73; 6HR MAX TEMP:  77; 6HR PCP:  0.04;

DE QUEEN       MOSUNNY   85  77  77 S9        29.91S HX  95
6HR MIN TEMP:  78; 6HR MAX TEMP:  88;

$$

ARZ056-057-069-290100-
SOUTHEAST ARKANSAS

CITY           SKY/WX    TMP DP  RH WIND       PRES   REMARKS
PINE BLUFF     CLOUDY    79  73  82 SW13      29.95R
6HR MIN TEMP:  79; 6HR MAX TEMP:  85;

STUTTGART      CLOUDY    82  73  74 SW10      29.92S HX  88
6HR MIN TEMP:  82; 6HR MAX TEMP:  90;

MONTICELLO     CLOUDY    78  74  87 SW9       29.97R
6HR MIN TEMP:  77; 6HR MAX TEMP:  84; 6HR PCP: TRACE;


$$






USA.gov is the U.S. government's official web portal to all federal, state and local government web resources and services.